Year,Month,Day,Hour,Minute,Value (Times are PST for temperature in C)
2012,07,21,00,00,15.50
2012,07,21,00,01,15.50
2012,07,21,00,02,15.50
2012,07,21,00,03,15.50
2012,07,21,00,04,15.40
2012,07,21,00,05,15.40
2012,07,21,00,06,15.30
2012,07,21,00,07,15.30
2012,07,21,00,08,15.30
2012,07,21,00,09,15.30
2012,07,21,00,10,15.30
2012,07,21,00,11,15.20
2012,07,21,00,12,15.20
2012,07,21,00,13,15.10
2012,07,21,00,14,15.10
2012,07,21,00,15,15.00
2012,07,21,00,16,15.00
2012,07,21,00,17,15.00
2012,07,21,00,18,14.90
2012,07,21,00,19,14.90
2012,07,21,00,20,14.80
2012,07,21,00,21,14.80
2012,07,21,00,22,14.70
2012,07,21,00,23,14.60
2012,07,21,00,24,14.60
2012,07,21,00,25,14.50
2012,07,21,00,26,14.40
2012,07,21,00,27,14.40
2012,07,21,00,28,14.30
2012,07,21,00,29,14.30
2012,07,21,00,30,14.20
2012,07,21,00,31,14.20
2012,07,21,00,32,14.20
2012,07,21,00,33,14.20
2012,07,21,00,34,14.10
2012,07,21,00,35,14.10
2012,07,21,00,36,14.00
2012,07,21,00,37,14.00
2012,07,21,00,38,13.90
2012,07,21,00,39,13.90
2012,07,21,00,40,13.90
2012,07,21,00,41,13.80
2012,07,21,00,42,13.80
2012,07,21,00,43,13.70
2012,07,21,00,44,13.70
2012,07,21,00,45,13.70
2012,07,21,00,46,13.70
2012,07,21,00,47,13.60
2012,07,21,00,48,13.60
2012,07,21,00,49,13.60
2012,07,21,00,50,13.50
2012,07,21,00,51,13.50
2012,07,21,00,52,13.50
2012,07,21,00,53,13.50
2012,07,21,00,54,13.50
2012,07,21,00,55,13.40
2012,07,21,00,56,13.50
2012,07,21,00,57,13.50
2012,07,21,00,58,13.50
2012,07,21,00,59,13.50
2012,07,21,01,00,13.50
2012,07,21,01,01,13.50
2012,07,21,01,02,13.50
2012,07,21,01,03,13.60
2012,07,21,01,04,13.60
2012,07,21,01,05,13.70
2012,07,21,01,06,13.70
2012,07,21,01,07,13.70
2012,07,21,01,08,13.70
2012,07,21,01,09,13.80
2012,07,21,01,10,13.90
2012,07,21,01,11,13.90
2012,07,21,01,12,14.00
2012,07,21,01,13,14.00
2012,07,21,01,14,14.10
2012,07,21,01,15,14.10
2012,07,21,01,16,14.10
2012,07,21,01,17,14.10
2012,07,21,01,18,14.20
2012,07,21,01,19,14.20
2012,07,21,01,20,14.20
2012,07,21,01,21,14.30
2012,07,21,01,22,14.40
2012,07,21,01,23,14.40
2012,07,21,01,24,14.50
2012,07,21,01,25,14.60
2012,07,21,01,26,14.60
2012,07,21,01,27,14.60
2012,07,21,01,28,14.60
2012,07,21,01,29,14.50
2012,07,21,01,30,14.40
2012,07,21,01,31,14.30
2012,07,21,01,32,14.20
2012,07,21,01,33,14.20
2012,07,21,01,34,14.10
2012,07,21,01,35,14.00
2012,07,21,01,36,14.00
2012,07,21,01,37,13.90
2012,07,21,01,38,13.90
2012,07,21,01,39,13.80
2012,07,21,01,40,13.80
2012,07,21,01,41,13.70
2012,07,21,01,42,13.70
2012,07,21,01,43,13.60
2012,07,21,01,44,13.50
2012,07,21,01,45,13.50
2012,07,21,01,46,13.50
2012,07,21,01,47,13.50
2012,07,21,01,48,13.40
2012,07,21,01,49,13.40
2012,07,21,01,50,13.40
2012,07,21,01,51,13.40
2012,07,21,01,52,13.30
2012,07,21,01,53,13.30
2012,07,21,01,54,13.30
2012,07,21,01,55,13.30
2012,07,21,01,56,13.30
2012,07,21,01,57,13.30
2012,07,21,01,58,13.30
2012,07,21,01,59,13.30
2012,07,21,02,00,13.30
2012,07,21,02,01,13.30
2012,07,21,02,02,13.30
2012,07,21,02,03,13.30
2012,07,21,02,04,13.30
2012,07,21,02,05,13.30
2012,07,21,02,06,13.30
2012,07,21,02,07,13.30
2012,07,21,02,08,13.30
2012,07,21,02,09,13.30
2012,07,21,02,10,13.30
2012,07,21,02,11,13.30
2012,07,21,02,12,13.30
2012,07,21,02,13,13.30
2012,07,21,02,14,13.30
2012,07,21,02,15,13.30
2012,07,21,02,16,13.30
2012,07,21,02,17,13.30
2012,07,21,02,18,13.30
2012,07,21,02,19,13.30
2012,07,21,02,20,13.30
2012,07,21,02,21,13.30
2012,07,21,02,22,13.40
2012,07,21,02,23,13.40
2012,07,21,02,24,13.40
2012,07,21,02,25,13.40
2012,07,21,02,26,13.40
2012,07,21,02,27,13.40
2012,07,21,02,28,13.40
2012,07,21,02,29,13.30
2012,07,21,02,30,13.30
2012,07,21,02,31,13.30
2012,07,21,02,32,13.30
2012,07,21,02,33,13.30
2012,07,21,02,34,13.30
2012,07,21,02,35,13.30
2012,07,21,02,36,13.30
2012,07,21,02,37,13.30
2012,07,21,02,38,13.30
2012,07,21,02,39,13.30
2012,07,21,02,40,13.30
2012,07,21,02,41,13.30
2012,07,21,02,42,13.30
2012,07,21,02,43,13.30
2012,07,21,02,44,13.30
2012,07,21,02,45,13.30
2012,07,21,02,46,13.30
2012,07,21,02,47,13.30
2012,07,21,02,48,13.30
2012,07,21,02,49,13.30
2012,07,21,02,50,13.30
2012,07,21,02,51,13.30
2012,07,21,02,52,13.30
2012,07,21,02,53,13.30
2012,07,21,02,54,13.30
2012,07,21,02,55,13.30
2012,07,21,02,56,13.30
2012,07,21,02,57,13.40
2012,07,21,02,58,13.30
2012,07,21,02,59,13.30
2012,07,21,03,00,13.40
2012,07,21,03,01,13.40
2012,07,21,03,02,13.40
2012,07,21,03,03,13.40
2012,07,21,03,04,13.40
2012,07,21,03,05,13.50
2012,07,21,03,06,13.50
2012,07,21,03,07,13.50
2012,07,21,03,08,13.50
2012,07,21,03,09,13.50
2012,07,21,03,10,13.60
2012,07,21,03,11,13.60
2012,07,21,03,12,13.60
2012,07,21,03,13,13.60
2012,07,21,03,14,13.60
2012,07,21,03,15,13.60
2012,07,21,03,16,13.60
2012,07,21,03,17,13.60
2012,07,21,03,18,13.60
2012,07,21,03,19,13.70
2012,07,21,03,20,13.70
2012,07,21,03,21,13.70
2012,07,21,03,22,13.70
2012,07,21,03,23,13.70
2012,07,21,03,24,13.70
2012,07,21,03,25,13.70
2012,07,21,03,26,13.70
2012,07,21,03,27,13.70
2012,07,21,03,28,13.70
2012,07,21,03,29,13.70
2012,07,21,03,30,13.70
2012,07,21,03,31,13.70
2012,07,21,03,32,13.80
2012,07,21,03,33,13.80
2012,07,21,03,34,13.80
2012,07,21,03,35,13.80
2012,07,21,03,36,13.80
2012,07,21,03,37,13.80
2012,07,21,03,38,13.80
2012,07,21,03,39,13.80
2012,07,21,03,40,13.80
2012,07,21,03,41,13.80
2012,07,21,03,42,13.80
2012,07,21,03,43,13.80
2012,07,21,03,44,13.90
2012,07,21,03,45,13.90
2012,07,21,03,46,13.90
2012,07,21,03,47,13.90
2012,07,21,03,48,13.90
2012,07,21,03,49,13.90
2012,07,21,03,50,13.90
2012,07,21,03,51,13.90
2012,07,21,03,52,13.90
2012,07,21,03,53,13.90
2012,07,21,03,54,13.90
2012,07,21,03,55,13.90
2012,07,21,03,56,13.80
2012,07,21,03,57,13.80
2012,07,21,03,58,13.80
2012,07,21,03,59,13.80
2012,07,21,04,00,13.80
2012,07,21,04,01,13.80
2012,07,21,04,02,13.80
2012,07,21,04,03,13.90
2012,07,21,04,04,13.90
2012,07,21,04,05,13.90
2012,07,21,04,06,13.90
2012,07,21,04,07,13.90
2012,07,21,04,08,13.90
2012,07,21,04,09,13.90
2012,07,21,04,10,13.90
2012,07,21,04,11,13.90
2012,07,21,04,12,13.90
2012,07,21,04,13,13.90
2012,07,21,04,14,13.90
2012,07,21,04,15,13.90
2012,07,21,04,16,13.90
2012,07,21,04,17,13.90
2012,07,21,04,18,13.90
2012,07,21,04,19,13.90
2012,07,21,04,20,13.90
2012,07,21,04,21,13.90
2012,07,21,04,22,13.90
2012,07,21,04,23,13.90
2012,07,21,04,24,13.80
2012,07,21,04,25,13.70
2012,07,21,04,26,13.70
2012,07,21,04,27,13.70
2012,07,21,04,28,13.70
2012,07,21,04,29,13.60
2012,07,21,04,30,13.60
2012,07,21,04,31,13.50
2012,07,21,04,32,13.50
2012,07,21,04,33,13.50
2012,07,21,04,34,13.40
2012,07,21,04,35,13.40
2012,07,21,04,36,13.40
2012,07,21,04,37,13.40
2012,07,21,04,38,13.40
2012,07,21,04,39,13.40
2012,07,21,04,40,13.40
2012,07,21,04,41,13.40
2012,07,21,04,42,13.40
2012,07,21,04,43,13.40
2012,07,21,04,44,13.40
2012,07,21,04,45,13.40
2012,07,21,04,46,13.30
2012,07,21,04,47,13.30
2012,07,21,04,48,13.30
2012,07,21,04,49,13.30
2012,07,21,04,50,13.30
2012,07,21,04,51,13.30
2012,07,21,04,52,13.30
2012,07,21,04,53,13.30
2012,07,21,04,54,13.30
2012,07,21,04,55,13.30
2012,07,21,04,56,13.30
2012,07,21,04,57,13.30
2012,07,21,04,58,13.30
2012,07,21,04,59,13.30
2012,07,21,05,00,13.30
2012,07,21,05,01,13.30
2012,07,21,05,02,13.30
2012,07,21,05,03,13.30
2012,07,21,05,04,13.30
2012,07,21,05,05,13.30
2012,07,21,05,06,13.20
2012,07,21,05,07,13.20
2012,07,21,05,08,13.20
2012,07,21,05,09,13.20
2012,07,21,05,10,13.20
2012,07,21,05,11,13.20
2012,07,21,05,12,13.20
2012,07,21,05,13,13.20
2012,07,21,05,14,13.20
2012,07,21,05,15,13.20
2012,07,21,05,16,13.20
2012,07,21,05,17,13.20
2012,07,21,05,18,13.20
2012,07,21,05,19,13.20
2012,07,21,05,20,13.30
2012,07,21,05,21,13.30
2012,07,21,05,22,13.30
2012,07,21,05,23,13.30
2012,07,21,05,24,13.40
2012,07,21,05,25,13.40
2012,07,21,05,26,13.40
2012,07,21,05,27,13.40
2012,07,21,05,28,13.40
2012,07,21,05,29,13.40
2012,07,21,05,30,13.30
2012,07,21,05,31,13.30
2012,07,21,05,32,13.30
2012,07,21,05,33,13.40
2012,07,21,05,34,13.40
2012,07,21,05,35,13.40
2012,07,21,05,36,13.40
2012,07,21,05,37,13.40
2012,07,21,05,38,13.40
2012,07,21,05,39,13.40
2012,07,21,05,40,13.40
2012,07,21,05,41,13.40
2012,07,21,05,42,13.40
2012,07,21,05,43,13.40
2012,07,21,05,44,13.40
2012,07,21,05,45,13.50
2012,07,21,05,46,13.50
2012,07,21,05,47,13.50
2012,07,21,05,48,13.50
2012,07,21,05,49,13.50
2012,07,21,05,50,13.60
2012,07,21,05,51,13.60
2012,07,21,05,52,13.60
2012,07,21,05,53,13.70
2012,07,21,05,54,13.70
2012,07,21,05,55,13.70
2012,07,21,05,56,13.80
2012,07,21,05,57,13.80
2012,07,21,05,58,13.90
2012,07,21,05,59,13.90
2012,07,21,06,00,13.90
2012,07,21,06,01,14.00
2012,07,21,06,02,14.00
2012,07,21,06,03,14.00
2012,07,21,06,04,14.00
2012,07,21,06,05,14.00
2012,07,21,06,06,14.00
2012,07,21,06,07,14.00
2012,07,21,06,08,14.00
2012,07,21,06,09,14.00
2012,07,21,06,10,14.00
2012,07,21,06,11,14.00
2012,07,21,06,12,14.00
2012,07,21,06,13,14.00
2012,07,21,06,14,14.00
2012,07,21,06,15,14.00
2012,07,21,06,16,14.10
2012,07,21,06,17,14.10
2012,07,21,06,18,14.10
2012,07,21,06,19,14.10
2012,07,21,06,20,14.10
2012,07,21,06,21,14.10
2012,07,21,06,22,14.20
2012,07,21,06,23,14.20
2012,07,21,06,24,14.20
2012,07,21,06,25,14.20
2012,07,21,06,26,14.20
2012,07,21,06,27,14.20
2012,07,21,06,28,14.20
2012,07,21,06,29,14.20
2012,07,21,06,30,14.20
2012,07,21,06,31,14.30
2012,07,21,06,32,14.30
2012,07,21,06,33,14.30
2012,07,21,06,34,14.30
2012,07,21,06,35,14.30
2012,07,21,06,36,14.30
2012,07,21,06,37,14.30
2012,07,21,06,38,14.30
2012,07,21,06,39,14.30
2012,07,21,06,40,14.30
2012,07,21,06,41,14.30
2012,07,21,06,42,14.30
2012,07,21,06,43,14.30
2012,07,21,06,44,14.30
2012,07,21,06,45,14.30
2012,07,21,06,46,14.30
2012,07,21,06,47,14.40
2012,07,21,06,48,14.40
2012,07,21,06,49,14.40
2012,07,21,06,50,14.40
2012,07,21,06,51,14.40
2012,07,21,06,52,14.40
2012,07,21,06,53,14.40
2012,07,21,06,54,14.40
2012,07,21,06,55,14.40
2012,07,21,06,56,14.50
2012,07,21,06,57,14.50
2012,07,21,06,58,14.50
2012,07,21,06,59,14.50
2012,07,21,07,00,14.50
2012,07,21,07,01,14.50
2012,07,21,07,02,14.50
2012,07,21,07,03,14.50
2012,07,21,07,04,14.50
2012,07,21,07,05,14.50
2012,07,21,07,06,14.50
2012,07,21,07,07,14.50
2012,07,21,07,08,14.50
2012,07,21,07,09,14.50
2012,07,21,07,10,14.50
2012,07,21,07,11,14.50
2012,07,21,07,12,14.50
2012,07,21,07,13,14.50
2012,07,21,07,14,14.50
2012,07,21,07,15,14.50
2012,07,21,07,16,14.50
2012,07,21,07,17,14.50
2012,07,21,07,18,14.50
2012,07,21,07,19,14.50
2012,07,21,07,20,14.50
2012,07,21,07,21,14.50
2012,07,21,07,22,14.50
2012,07,21,07,23,14.50
2012,07,21,07,24,14.60
2012,07,21,07,25,14.60
2012,07,21,07,26,14.50
2012,07,21,07,27,14.50
2012,07,21,07,28,14.50
2012,07,21,07,29,14.50
2012,07,21,07,30,14.60
2012,07,21,07,31,14.60
2012,07,21,07,32,14.60
2012,07,21,07,33,14.60
2012,07,21,07,34,14.60
2012,07,21,07,35,14.60
2012,07,21,07,36,14.60
2012,07,21,07,37,14.50
2012,07,21,07,38,14.50
2012,07,21,07,39,14.50
2012,07,21,07,40,14.50
2012,07,21,07,41,14.60
2012,07,21,07,42,14.60
2012,07,21,07,43,14.60
2012,07,21,07,44,14.60
2012,07,21,07,45,14.70
2012,07,21,07,46,14.70
2012,07,21,07,47,14.70
2012,07,21,07,48,14.70
2012,07,21,07,49,14.80
2012,07,21,07,50,14.80
2012,07,21,07,51,14.80
2012,07,21,07,52,14.80
2012,07,21,07,53,14.80
2012,07,21,07,54,14.80
2012,07,21,07,55,14.80
2012,07,21,07,56,14.80
2012,07,21,07,57,14.90
2012,07,21,07,58,14.80
2012,07,21,07,59,14.80
2012,07,21,08,00,14.80
2012,07,21,08,01,14.80
2012,07,21,08,02,14.80
2012,07,21,08,03,14.80
2012,07,21,08,04,14.80
2012,07,21,08,05,14.80
2012,07,21,08,06,14.80
2012,07,21,08,07,14.80
2012,07,21,08,08,14.80
2012,07,21,08,09,14.90
2012,07,21,08,10,14.90
2012,07,21,08,11,14.90
2012,07,21,08,12,14.90
2012,07,21,08,13,14.90
2012,07,21,08,14,15.00
2012,07,21,08,15,15.00
2012,07,21,08,16,15.00
2012,07,21,08,17,15.10
2012,07,21,08,18,15.10
2012,07,21,08,19,15.10
2012,07,21,08,20,15.20
2012,07,21,08,21,15.20
2012,07,21,08,22,15.20
2012,07,21,08,23,15.20
2012,07,21,08,24,15.30
2012,07,21,08,25,15.30
2012,07,21,08,26,15.30
2012,07,21,08,27,15.30
2012,07,21,08,28,15.30
2012,07,21,08,29,15.40
2012,07,21,08,30,15.40
2012,07,21,08,31,15.50
2012,07,21,08,32,15.50
2012,07,21,08,33,15.50
2012,07,21,08,34,15.60
2012,07,21,08,35,15.60
2012,07,21,08,36,15.70
2012,07,21,08,37,15.80
2012,07,21,08,38,15.80
2012,07,21,08,39,15.80
2012,07,21,08,40,15.90
2012,07,21,08,41,15.90
2012,07,21,08,42,15.90
2012,07,21,08,43,16.00
2012,07,21,08,44,16.10
2012,07,21,08,45,16.10
2012,07,21,08,46,16.10
2012,07,21,08,47,16.10
2012,07,21,08,48,16.20
2012,07,21,08,49,16.20
2012,07,21,08,50,16.30
2012,07,21,08,51,16.30
2012,07,21,08,52,16.30
2012,07,21,08,53,16.40
2012,07,21,08,54,16.40
2012,07,21,08,55,16.40
2012,07,21,08,56,16.50
2012,07,21,08,57,16.60
2012,07,21,08,58,16.60
2012,07,21,08,59,16.60
2012,07,21,09,00,16.70
2012,07,21,09,01,16.70
2012,07,21,09,02,16.70
2012,07,21,09,03,16.80
2012,07,21,09,04,16.80
2012,07,21,09,05,16.90
2012,07,21,09,06,16.90
2012,07,21,09,07,17.00
2012,07,21,09,08,17.10
2012,07,21,09,09,17.10
2012,07,21,09,10,17.20
2012,07,21,09,11,17.30
2012,07,21,09,12,17.30
2012,07,21,09,13,17.40
2012,07,21,09,14,17.40
2012,07,21,09,15,17.40
2012,07,21,09,16,17.50
2012,07,21,09,17,17.50
2012,07,21,09,18,17.50
2012,07,21,09,19,17.50
2012,07,21,09,20,17.40
2012,07,21,09,21,17.50
2012,07,21,09,22,17.50
2012,07,21,09,23,17.60
2012,07,21,09,24,17.60
2012,07,21,09,25,17.60
2012,07,21,09,26,17.70
2012,07,21,09,27,17.70
2012,07,21,09,28,17.70
2012,07,21,09,29,17.80
2012,07,21,09,30,17.80
2012,07,21,09,31,17.90
2012,07,21,09,32,17.90
2012,07,21,09,33,17.90
2012,07,21,09,34,17.90
2012,07,21,09,35,18.00
2012,07,21,09,36,18.10
2012,07,21,09,37,18.10
2012,07,21,09,38,18.10
2012,07,21,09,39,18.20
2012,07,21,09,40,18.10
2012,07,21,09,41,18.00
2012,07,21,09,42,17.90
2012,07,21,09,43,17.90
2012,07,21,09,44,17.90
2012,07,21,09,45,17.90
2012,07,21,09,46,17.90
2012,07,21,09,47,17.90
2012,07,21,09,48,18.10
2012,07,21,09,49,18.10
2012,07,21,09,50,18.10
2012,07,21,09,51,18.10
2012,07,21,09,52,18.00
2012,07,21,09,53,17.90
2012,07,21,09,54,17.80
2012,07,21,09,55,17.80
2012,07,21,09,56,17.70
2012,07,21,09,57,17.70
2012,07,21,09,58,17.60
2012,07,21,09,59,17.60
2012,07,21,10,00,17.50
2012,07,21,10,01,17.50
2012,07,21,10,02,17.60
2012,07,21,10,03,17.50
2012,07,21,10,04,17.50
2012,07,21,10,05,17.50
2012,07,21,10,06,17.50
2012,07,21,10,07,17.50
2012,07,21,10,08,17.50
2012,07,21,10,09,17.50
2012,07,21,10,10,17.50
2012,07,21,10,11,17.50
2012,07,21,10,12,17.40
2012,07,21,10,13,17.40
2012,07,21,10,14,17.40
2012,07,21,10,15,17.40
2012,07,21,10,16,17.40
2012,07,21,10,17,17.40
2012,07,21,10,18,17.40
2012,07,21,10,19,17.50
2012,07,21,10,20,17.50
2012,07,21,10,21,17.50
2012,07,21,10,22,17.60
2012,07,21,10,23,17.60
2012,07,21,10,24,17.60
2012,07,21,10,25,17.60
2012,07,21,10,26,17.60
2012,07,21,10,27,17.60
2012,07,21,10,28,17.60
2012,07,21,10,29,17.60
2012,07,21,10,30,17.60
2012,07,21,10,31,17.70
2012,07,21,10,32,17.70
2012,07,21,10,33,17.70
2012,07,21,10,34,17.80
2012,07,21,10,35,17.90
2012,07,21,10,36,17.90
2012,07,21,10,37,18.00
2012,07,21,10,38,18.20
2012,07,21,10,39,18.30
2012,07,21,10,40,18.30
2012,07,21,10,41,18.30
2012,07,21,10,42,18.30
2012,07,21,10,43,18.30
2012,07,21,10,44,18.20
2012,07,21,10,45,18.20
2012,07,21,10,46,18.20
2012,07,21,10,47,18.30
2012,07,21,10,48,18.40
2012,07,21,10,49,18.40
2012,07,21,10,50,18.40
2012,07,21,10,51,18.30
2012,07,21,10,52,18.30
2012,07,21,10,53,18.40
2012,07,21,10,54,18.40
2012,07,21,10,55,18.40
2012,07,21,10,56,18.40
2012,07,21,10,57,18.50
2012,07,21,10,58,18.40
2012,07,21,10,59,18.40
2012,07,21,11,00,18.30
2012,07,21,11,01,18.30
2012,07,21,11,02,18.30
2012,07,21,11,03,18.20
2012,07,21,11,04,18.20
2012,07,21,11,05,18.20
2012,07,21,11,06,18.20
2012,07,21,11,07,18.20
2012,07,21,11,08,18.20
2012,07,21,11,09,18.20
2012,07,21,11,10,18.30
2012,07,21,11,11,18.30
2012,07,21,11,12,18.30
2012,07,21,11,13,18.30
2012,07,21,11,14,18.40
2012,07,21,11,15,18.50
2012,07,21,11,16,18.50
2012,07,21,11,17,18.60
2012,07,21,11,18,18.70
2012,07,21,11,19,18.70
2012,07,21,11,20,18.80
2012,07,21,11,21,18.80
2012,07,21,11,22,18.90
2012,07,21,11,23,18.90
2012,07,21,11,24,19.00
2012,07,21,11,25,19.10
2012,07,21,11,26,19.10
2012,07,21,11,27,19.10
2012,07,21,11,28,19.20
2012,07,21,11,29,19.20
2012,07,21,11,30,19.30
2012,07,21,11,31,19.40
2012,07,21,11,32,19.50
2012,07,21,11,33,19.60
2012,07,21,11,34,19.60
2012,07,21,11,35,19.70
2012,07,21,11,36,19.80
2012,07,21,11,37,19.70
2012,07,21,11,38,19.60
2012,07,21,11,39,19.60
2012,07,21,11,40,19.50
2012,07,21,11,41,19.40
2012,07,21,11,42,19.20
2012,07,21,11,43,19.10
2012,07,21,11,44,19.10
2012,07,21,11,45,19.10
2012,07,21,11,46,19.00
2012,07,21,11,47,18.90
2012,07,21,11,48,19.10
2012,07,21,11,49,19.10
2012,07,21,11,50,19.10
2012,07,21,11,51,19.10
2012,07,21,11,52,19.10
2012,07,21,11,53,19.10
2012,07,21,11,54,19.20
2012,07,21,11,55,19.20
2012,07,21,11,56,19.20
2012,07,21,11,57,19.30
2012,07,21,11,58,19.40
2012,07,21,11,59,19.40
2012,07,21,12,00,19.50
2012,07,21,12,01,19.60
2012,07,21,12,02,19.60
2012,07,21,12,03,19.60
2012,07,21,12,04,19.50
2012,07,21,12,05,19.40
2012,07,21,12,06,19.20
2012,07,21,12,07,19.10
2012,07,21,12,08,19.10
2012,07,21,12,09,19.10
2012,07,21,12,10,19.10
2012,07,21,12,11,19.30
2012,07,21,12,12,19.40
2012,07,21,12,13,19.40
2012,07,21,12,14,19.40
2012,07,21,12,15,19.40
2012,07,21,12,16,19.30
2012,07,21,12,17,19.30
2012,07,21,12,18,19.30
2012,07,21,12,19,19.40
2012,07,21,12,20,19.40
2012,07,21,12,21,19.50
2012,07,21,12,22,19.50
2012,07,21,12,23,19.40
2012,07,21,12,24,19.40
2012,07,21,12,25,19.30
2012,07,21,12,26,19.30
2012,07,21,12,27,19.30
2012,07,21,12,28,19.30
2012,07,21,12,29,19.30
2012,07,21,12,30,19.30
2012,07,21,12,31,19.40
2012,07,21,12,32,19.50
2012,07,21,12,33,19.60
2012,07,21,12,34,19.80
2012,07,21,12,35,19.80
2012,07,21,12,36,19.80
2012,07,21,12,37,19.80
2012,07,21,12,38,19.80
2012,07,21,12,39,19.70
2012,07,21,12,40,19.60
2012,07,21,12,41,19.40
2012,07,21,12,42,19.40
2012,07,21,12,43,19.40
2012,07,21,12,44,19.40
2012,07,21,12,45,19.40
2012,07,21,12,46,19.50
2012,07,21,12,47,19.50
2012,07,21,12,48,19.50
2012,07,21,12,49,19.50
2012,07,21,12,50,19.50
2012,07,21,12,51,19.50
2012,07,21,12,52,19.60
2012,07,21,12,53,19.60
2012,07,21,12,54,19.60
2012,07,21,12,55,19.50
2012,07,21,12,56,19.40
2012,07,21,12,57,19.50
2012,07,21,12,58,19.50
2012,07,21,12,59,19.50
2012,07,21,13,00,19.60
2012,07,21,13,01,19.60
2012,07,21,13,02,19.60
2012,07,21,13,03,19.60
2012,07,21,13,04,19.70
2012,07,21,13,05,19.70
2012,07,21,13,06,19.80
2012,07,21,13,07,19.90
2012,07,21,13,08,19.90
2012,07,21,13,09,19.90
2012,07,21,13,10,19.90
2012,07,21,13,11,19.90
2012,07,21,13,12,19.90
2012,07,21,13,13,19.90
2012,07,21,13,14,19.90
2012,07,21,13,15,19.90
2012,07,21,13,16,19.90
2012,07,21,13,17,19.90
2012,07,21,13,18,19.90
2012,07,21,13,19,19.80
2012,07,21,13,20,19.80
2012,07,21,13,21,19.80
2012,07,21,13,22,19.80
2012,07,21,13,23,19.60
2012,07,21,13,24,19.60
2012,07,21,13,25,19.50
2012,07,21,13,26,19.50
2012,07,21,13,27,19.40
2012,07,21,13,28,19.40
2012,07,21,13,29,19.30
2012,07,21,13,30,19.30
2012,07,21,13,31,19.20
2012,07,21,13,32,19.20
2012,07,21,13,33,19.30
2012,07,21,13,34,19.30
2012,07,21,13,35,19.30
2012,07,21,13,36,19.40
2012,07,21,13,37,19.40
2012,07,21,13,38,19.50
2012,07,21,13,39,19.50
2012,07,21,13,40,19.50
2012,07,21,13,41,19.50
2012,07,21,13,42,19.50
2012,07,21,13,43,19.50
2012,07,21,13,44,19.50
2012,07,21,13,45,19.40
2012,07,21,13,46,19.50
2012,07,21,13,47,19.50
2012,07,21,13,48,19.60
2012,07,21,13,49,19.70
2012,07,21,13,50,19.70
2012,07,21,13,51,19.70
2012,07,21,13,52,19.60
2012,07,21,13,53,19.60
2012,07,21,13,54,19.60
2012,07,21,13,55,19.70
2012,07,21,13,56,19.70
2012,07,21,13,57,19.60
2012,07,21,13,58,19.50
2012,07,21,13,59,19.60
2012,07,21,14,00,19.70
2012,07,21,14,01,19.70
2012,07,21,14,02,19.70
2012,07,21,14,03,19.60
2012,07,21,14,04,19.60
2012,07,21,14,05,19.60
2012,07,21,14,06,19.60
2012,07,21,14,07,19.70
2012,07,21,14,08,19.80
2012,07,21,14,09,19.90
2012,07,21,14,10,20.00
2012,07,21,14,11,20.20
2012,07,21,14,12,20.20
2012,07,21,14,13,20.10
2012,07,21,14,14,19.90
2012,07,21,14,15,20.00
2012,07,21,14,16,20.10
2012,07,21,14,17,20.20
2012,07,21,14,18,20.20
2012,07,21,14,19,20.20
2012,07,21,14,20,20.20
2012,07,21,14,21,20.20
2012,07,21,14,22,20.20
2012,07,21,14,23,20.10
2012,07,21,14,24,20.00
2012,07,21,14,25,19.90
2012,07,21,14,26,19.70
2012,07,21,14,27,19.70
2012,07,21,14,28,19.80
2012,07,21,14,29,19.80
2012,07,21,14,30,19.60
2012,07,21,14,31,19.40
2012,07,21,14,32,19.30
2012,07,21,14,33,19.30
2012,07,21,14,34,19.30
2012,07,21,14,35,19.30
2012,07,21,14,36,19.30
2012,07,21,14,37,19.30
2012,07,21,14,38,19.40
2012,07,21,14,39,19.50
2012,07,21,14,40,19.60
2012,07,21,14,41,19.60
2012,07,21,14,42,19.60
2012,07,21,14,43,19.70
2012,07,21,14,44,19.70
2012,07,21,14,45,19.70
2012,07,21,14,46,19.80
2012,07,21,14,47,19.90
2012,07,21,14,48,20.00
2012,07,21,14,49,20.10
2012,07,21,14,50,20.10
2012,07,21,14,51,20.20
2012,07,21,14,52,20.20
2012,07,21,14,53,20.20
2012,07,21,14,54,20.20
2012,07,21,14,55,20.30
2012,07,21,14,56,20.20
2012,07,21,14,57,20.20
2012,07,21,14,58,20.20
2012,07,21,14,59,20.20
2012,07,21,15,00,20.30
2012,07,21,15,01,20.30
2012,07,21,15,02,20.20
2012,07,21,15,03,20.20
2012,07,21,15,04,20.20
2012,07,21,15,05,20.20
2012,07,21,15,06,20.20
2012,07,21,15,07,20.20
2012,07,21,15,08,20.20
2012,07,21,15,09,20.00
2012,07,21,15,10,19.90
2012,07,21,15,11,19.90
2012,07,21,15,12,19.90
2012,07,21,15,13,19.90
2012,07,21,15,14,19.90
2012,07,21,15,15,19.90
2012,07,21,15,16,20.00
2012,07,21,15,17,20.10
2012,07,21,15,18,20.10
2012,07,21,15,19,20.20
2012,07,21,15,20,20.20
2012,07,21,15,21,20.20
2012,07,21,15,22,20.10
2012,07,21,15,23,20.10
2012,07,21,15,24,20.10
2012,07,21,15,25,20.10
2012,07,21,15,26,20.10
2012,07,21,15,27,20.20
2012,07,21,15,28,20.20
2012,07,21,15,29,20.20
2012,07,21,15,30,20.20
2012,07,21,15,31,20.20
2012,07,21,15,32,20.20
2012,07,21,15,33,20.30
2012,07,21,15,34,20.40
2012,07,21,15,35,20.50
2012,07,21,15,36,20.60
2012,07,21,15,37,20.60
2012,07,21,15,38,20.60
2012,07,21,15,39,20.60
2012,07,21,15,40,20.50
2012,07,21,15,41,20.50
2012,07,21,15,42,20.50
2012,07,21,15,43,20.50
2012,07,21,15,44,20.50
2012,07,21,15,45,20.50
2012,07,21,15,46,20.50
2012,07,21,15,47,20.30
2012,07,21,15,48,20.30
2012,07,21,15,49,20.20
2012,07,21,15,50,20.20
2012,07,21,15,51,20.20
2012,07,21,15,52,20.30
2012,07,21,15,53,20.30
2012,07,21,15,54,20.40
2012,07,21,15,55,20.50
2012,07,21,15,56,20.60
2012,07,21,15,57,20.70
2012,07,21,15,58,20.70
2012,07,21,15,59,20.80
2012,07,21,16,00,20.90
2012,07,21,16,01,20.70
2012,07,21,16,02,20.70
2012,07,21,16,03,20.60
2012,07,21,16,04,20.50
2012,07,21,16,05,20.40
2012,07,21,16,06,20.40
2012,07,21,16,07,20.30
2012,07,21,16,08,20.20
2012,07,21,16,09,20.30
2012,07,21,16,10,20.40
2012,07,21,16,11,20.40
2012,07,21,16,12,20.40
2012,07,21,16,13,20.40
2012,07,21,16,14,20.40
2012,07,21,16,15,20.30
2012,07,21,16,16,20.30
2012,07,21,16,17,20.30
2012,07,21,16,18,20.30
2012,07,21,16,19,20.20
2012,07,21,16,20,20.30
2012,07,21,16,21,20.30
2012,07,21,16,22,20.30
2012,07,21,16,23,20.30
2012,07,21,16,24,20.20
2012,07,21,16,25,20.20
2012,07,21,16,26,20.20
2012,07,21,16,27,20.20
2012,07,21,16,28,20.30
2012,07,21,16,29,20.30
2012,07,21,16,30,20.30
2012,07,21,16,31,20.30
2012,07,21,16,32,20.30
2012,07,21,16,33,20.20
2012,07,21,16,34,20.20
2012,07,21,16,35,20.20
2012,07,21,16,36,20.20
2012,07,21,16,37,20.20
2012,07,21,16,38,20.20
2012,07,21,16,39,20.30
2012,07,21,16,40,20.30
2012,07,21,16,41,20.20
2012,07,21,16,42,20.20
2012,07,21,16,43,20.20
2012,07,21,16,44,20.20
2012,07,21,16,45,20.20
2012,07,21,16,46,20.20
2012,07,21,16,47,20.30
2012,07,21,16,48,20.50
2012,07,21,16,49,20.60
2012,07,21,16,50,20.60
2012,07,21,16,51,20.70
2012,07,21,16,52,20.80
2012,07,21,16,53,20.90
2012,07,21,16,54,21.00
2012,07,21,16,55,21.10
2012,07,21,16,56,21.10
2012,07,21,16,57,21.20
2012,07,21,16,58,21.10
2012,07,21,16,59,21.00
2012,07,21,17,00,20.90
2012,07,21,17,01,20.80
2012,07,21,17,02,20.70
2012,07,21,17,03,20.70
2012,07,21,17,04,20.70
2012,07,21,17,05,20.80
2012,07,21,17,06,20.80
2012,07,21,17,07,20.90
2012,07,21,17,08,21.00
2012,07,21,17,09,21.10
2012,07,21,17,10,21.00
2012,07,21,17,11,20.90
2012,07,21,17,12,21.00
2012,07,21,17,13,21.00
2012,07,21,17,14,21.10
2012,07,21,17,15,21.20
2012,07,21,17,16,21.20
2012,07,21,17,17,21.30
2012,07,21,17,18,21.30
2012,07,21,17,19,21.40